Location: Łódź
(51.7951°N, 19.4477°E)
Time: 01:43:16
(UTC+01:00)

Envisat - Visible Passes

Search period start: 20 March 2019 00:00
Search period end: 30 March 2019 00:00
Orbit: 764 x 766 km, 98.2° (Epoch: 19 March)

Date Brightness Start Highest point End Pass type
(mag) Time Alt. Az. Time Alt. Az. Time Alt. Az.
20 Mar 5.3 19:16:07 10° SSW 19:20:19 26° W 19:24:33 10° NW visible
21 Mar 4.1 18:38:22 10° S 18:43:16 49° W 18:48:15 10° NNW visible
22 Mar 5.9 19:43:03 10° SW 19:46:10 16° W 19:49:18 10° NW visible
23 Mar 5.0 19:04:30 10° SSW 19:08:59 31° W 19:13:31 10° NNW visible
25 Mar 5.8 19:31:08 10° SW 19:34:48 20° W 19:38:29 10° NW visible
26 Mar 4.7 18:52:59 10° SSW 18:57:41 38° W 19:02:26 10° NNW visible
27 Mar 6.1 19:58:46 10° WSW 20:00:43 12° W 20:02:41 10° WNW visible
28 Mar 5.5 19:19:23 10° SW 19:23:27 24° W 19:27:33 10° NW visible
29 Mar 4.3 18:41:32 10° S 18:46:24 46° W 18:51:19 10° NNW visible
